Location: Bruderhein
(53.8035°N, 112.9265°W)
Time: 01:26:22
(UTC+00:00)

BEESAT - Pass Details

Date: 02 April 2023
Orbit: 696 x 706 km, 98.5° (Epoch: 31 May)

Event Time Altitude Azimuth Distance (km) Brightness Sun altitude
Rises 04:17:42 0° 19° (NNE) 3,114 ? -18.4°
Reaches altitude 10° 04:20:06 10° 27° (NNE) 2,190 ? -18.6°
Maximum altitude 04:24:39 42° 98° (E) 1,005 ? -19.2°
Enters shadow 04:25:16 40° 119° (ESE) 1,039 ? -19.2°
